[TLELIST] Archives

 

[list_settings.list_name] Current TLEs

June 5th 2010 PST

HST 1 20580U 90037B 10155.87953018 .00000556 00000-0 29750-4 0 5783 2 20580 028.4716 320.2083 0003226 069.8389 290.2539 15.00982732902906 ISS (ZARYA) 1 25544U 98067A 10156.35912597 -.00805926 00000-0 -61077-2 0 2824 2 25544 051.6490 291.1688 0009977 040.5623 348.4691 15.73788545661612 CXO 1 25867U 99040B 10155.83333333 .00000155 00000-0 10000-3 0 4744 2 25867 067.0725 054.2341 8151078 275.2570 357.8102 00.37807248 6342 ____________________________________________________________________ These 2-Line ...Continue Reading

[list_settings.list_name] Current TLEs

June 4th 2010 PST

HST 1 20580U 90037B 10154.88214637 .00000521 00000-0 27104-4 0 5772 2 20580 028.4705 326.7173 0003203 058.4260 301.6674 15.00981809902756 ISS (ZARYA) 1 25544U 98067A 10155.41950836 .00013940 00000-0 94785-4 0 2782 2 25544 051.6476 295.9821 0009512 022.7652 076.2372 15.75203800661469 CXO 1 25867U 99040B 10155.83333333 .00000155 00000-0 10000-3 0 4744 2 25867 067.0725 054.2341 8151078 275.2570 357.8102 00.37807248 6342 ____________________________________________________________________ These 2-Line ...Continue Reading

[list_settings.list_name] Current TLEs

June 3rd 2010 PST

HST 1 20580U 90037B 10153.55230267 .00000387 00000-0 16839-4 0 5764 2 20580 028.4700 335.3961 0003094 045.7901 314.3149 15.00980246902551 ISS (ZARYA) 1 25544U 98067A 10154.46893444 .00027498 00000-0 18262-3 0 2752 2 25544 051.6468 300.8667 0009241 019.8297 085.1575 15.75197254661318 CXO 1 25867U 99040B 10153.16666667 .00000079 00000-0 10000-3 0 4731 2 25867 067.0638 054.3373 8147435 275.2439 354.8344 00.37804636 6339 ____________________________________________________________________ These 2-Line ...Continue Reading

[list_settings.list_name] Current TLEs

June 2nd 2010 PST

HST 1 20580U 90037B 10150.02820027 .00000387 00000-0 16839-4 0 5751 2 20580 028.4720 358.4005 0003126 007.6900 352.3749 15.00977608902028 ISS (ZARYA) 1 25544U 98067A 10153.51148505 .00027893 00000-0 18559-3 0 2688 2 25544 051.6463 305.7917 0009169 015.8307 056.1726 15.75145185661167 CXO 1 25867U 99040B 10153.16666667 .00000079 00000-0 10000-3 0 4731 2 25867 067.0638 054.3373 8147435 275.2439 354.8344 00.37804636 6339 ____________________________________________________________________ These 2-Line ...Continue Reading

[list_settings.list_name] Current TLEs

June 1st 2010 PST

HST 1 20580U 90037B 10150.02820027 .00000387 00000-0 16839-4 0 5751 2 20580 028.4720 358.4005 0003126 007.6900 352.3749 15.00977608902028 ISS (ZARYA) 1 25544U 98067A 10152.50217123 .00026765 00000-0 17876-3 0 2610 2 25544 051.6473 310.9826 0009003 011.7112 093.2006 15.75086113661002 CXO 1 25867U 99040B 10153.16666667 .00000079 00000-0 10000-3 0 4731 2 25867 067.0638 054.3373 8147435 275.2439 354.8344 00.37804636 6339 ____________________________________________________________________ These 2-Line ...Continue Reading

[list_settings.list_name] Current TLEs

May 31st 2010 PST

HST 1 20580U 90037B 10150.02820027 .00000387 00000-0 16839-4 0 5751 2 20580 028.4720 358.4005 0003126 007.6900 352.3749 15.00977608902028 ISS (ZARYA) 1 25544U 98067A 10151.28905424 .00053067 00000-0 34969-3 0 2530 2 25544 051.6476 317.2227 0009301 008.2150 053.4713 15.75047530660815 CXO 1 25867U 99040B 10150.54166667 -.00000048 00000-0 10000-3 0 4721 2 25867 067.0527 054.4384 8144051 275.2336 357.5291 00.37805482 6326 ____________________________________________________________________ These 2-Line ...Continue Reading

[list_settings.list_name] Current TLEs

May 30th 2010 PST

HST 1 20580U 90037B 10150.02820027 .00000387 00000-0 16839-4 0 5751 2 20580 028.4720 358.4005 0003126 007.6900 352.3749 15.00977608902028 ISS (ZARYA) 1 25544U 98067A 10150.52440081 .00011976 00000-0 83031-4 0 2470 2 25544 051.6483 321.1496 0008946 004.8170 038.3213 15.74931540660698 CXO 1 25867U 99040B 10150.54166667 -.00000048 00000-0 10000-3 0 4721 2 25867 067.0527 054.4384 8144051 275.2336 357.5291 00.37805482 6326 ____________________________________________________________________ These 2-Line ...Continue Reading

[list_settings.list_name] Current TLEs

May 29th 2010 PST

HST 1 20580U 90037B 10149.03081167 .00000367 00000-0 15317-4 0 5741 2 20580 028.4719 004.9116 0003084 356.2054 003.8500 15.00977048901871 ISS (ZARYA) 1 25544U 98067A 10149.51107503 .00008613 00000-0 61035-4 0 2403 2 25544 051.6473 326.3620 0008979 001.2062 052.7803 15.74897204660536 CXO 1 25867U 99040B 10145.32538203 .00000000 00000-0 10000-3 0 4716 2 25867 067.0313 054.6468 8127330 275.2741 007.2899 00.37814595 6301 ____________________________________________________________________ These 2-Line ...Continue Reading

[list_settings.list_name] Current TLEs

May 28th 2010 PST

HST 1 20580U 90037B 10148.03342351 .00000364 00000-0 15058-4 0 5733 2 20580 028.4709 011.4217 0003046 343.7060 016.3457 15.00976549901720 ISS (ZARYA) 1 25544U 98067A 10148.36943285 .00020673 00000-0 14030-3 0 2334 2 25544 051.6469 332.2337 0009182 357.4794 059.5107 15.74891882660355 CXO 1 25867U 99040B 10145.32538203 .00000000 00000-0 10000-3 0 4716 2 25867 067.0313 054.6468 8127330 275.2741 007.2899 00.37814595 6301 ____________________________________________________________________ These 2-Line ...Continue Reading

[list_settings.list_name] Current TLEs

May 27th 2010 PST

HST 1 20580U 90037B 10146.96954202 .00000383 00000-0 16497-4 0 5725 2 20580 028.4698 018.3684 0003133 332.1946 027.8471 15.00976129901562 ISS (ZARYA) 1 25544U 98067A 10147.47104801 .00021534 00000-0 14190-3 0 2309 2 25544 051.6486 336.8517 0008779 352.2529 007.8860 15.74867339660211 CXO 1 25867U 99040B 10147.87500000 -.00000111 00000-0 10000-3 0 4705 2 25867 067.0416 054.5626 8139290 275.2159 354.5518 00.37807407 6312 ____________________________________________________________________ These 2-Line ...Continue Reading
  • This mailing list is a public mailing list - anyone may join or leave, at any time.
  • This mailing list is announce-only.

International Space Station (ISS) / Hubble Space Telescope (HST) / Chandra X-Ray Observatory Orbital Data via EMAIL

Privacy Policy:

Private list